Location: Eschertshofen
(49.3064°N, 11.5756°E)
Time: 05:00:03
(UTC+00:00)

Cosmos 1891 Rocket - Pass Details

Date: 18 September 2020
Orbit: 933 x 1019 km, 82.9° (Epoch: 20 October)

Event Time Altitude Azimuth Distance (km) Brightness Sun altitude
Rises 18:25:23 0° 176° (S) 3,644 7.3 -11.4°
Reaches altitude 10° 18:27:55 10° 173° (S) 2,690 6.6 -11.8°
Maximum altitude 18:33:57 62° 94° (E) 1,060 4.4 -12.7°
Drops below altitude 10° 18:39:56 10° 15° (NNE) 2,664 6.8 -13.7°
Sets 18:42:26 0° 12° (NNE) 3,608 7.6 -14.0°
